START_TIME,STEP,MOV.,H8,t_acc.,H43,t_acc.,M25,t_acc.,H9,t_acc.
1980-11-14 09:04:14.470 ,0,0,,0,,0,,0,,0
1980-11-14 09:04:26.470 ,0,0,,0,,0,,0,,0
1980-11-14 09:04:18.070 ,0,0,,0,,0,,0,,0
1980-11-14 09:04:30.070 ,0,0,,0,,0,,0,,0
1980-11-14 09:09:12.670 ,0,0,0.,12.0,0.,12.0,0.,12.0,0.,12.0
1980-11-14 09:09:24.670 ,0,0,0.,12.0,0.,12.0,0.,12.0,0.,12.0
1980-11-14 09:09:30.070 ,2,0,0.,12.0,0.,12.0,0.,12.0,0.,12.0
1980-11-14 09:09:42.070 ,2,0,0.,12.0,0.,12.0,0.,12.0,0.,12.0
1980-11-14 09:09:54.070 ,2,0,0.,12.0,0.,12.0,0.,12.0,0.,12.0
1980-11-14 09:10:06.070 ,2,0,0.,12.0,0.,12.0,0.,12.0,0.,12.0
1980-11-14 09:10:18.070 ,3,0,0.,12.0,0.,12.0,0.,12.0,0.,12.0
1980-11-14 09:10:30.070 ,3,0,0.,12.0,0.,12.0,0.,12.0,0.,12.0
1980-11-14 09:10:42.070 ,3,0,0.,12.0,0.,12.0,0.,12.0,0.,12.0
1980-11-14 09:10:54.070 ,3,0,0.,12.0,0.,12.0,0.,12.0,0.,12.0
1980-11-14 09:11:06.070 ,4,0,0.,12.0,0.,12.0,0.,12.0,0.,12.0
1980-11-14 09:11:18.070 ,4,0,0.,12.0,0.,12.0,0.,12.0,0.,12.0
1980-11-14 09:11:30.070 ,4,0,0.,12.0,0.,12.0,0.,12.0,0.,12.0
1980-11-14 09:11:42.070 ,4,0,0.,12.0,0.,12.0,0.,12.0,0.,12.0
1980-11-14 09:11:54.070 ,5,0,0.,12.0,0.,12.0,0.,12.0,0.,12.0
1980-11-14 09:12:06.070 ,5,0,0.,12.0,0.,12.0,0.,12.0,0.,12.0
1980-11-14 09:12:18.070 ,5,0,0.,12.0,0.,12.0,0.,12.0,0.,12.0
1980-11-14 09:12:30.070 ,5,0,0.,12.0,0.,12.0,0.,12.0,0.,12.0
1980-11-14 09:12:42.070 ,6,0,0.,12.0,0.,12.0,0.,12.0,0.,12.0
1980-11-14 09:12:54.070 ,6,0,0.,12.0,0.,12.0,0.,12.0,0.,12.0
1980-11-14 09:13:06.070 ,6,0,0.,12.0,0.,12.0,0.,12.0,0.,12.0
1980-11-14 09:13:18.070 ,6,0,0.,12.0,0.,12.0,0.,12.0,0.,12.0
1980-11-14 09:13:30.070 ,7,0,0.,12.0,0.,12.0,0.,12.0,0.,12.0
1980-11-14 09:13:42.070 ,7,0,0.,12.0,0.,12.0,0.,12.0,0.,12.0
1980-11-14 09:13:54.070 ,7,0,0.,12.0,0.,12.0,0.,12.0,0.,12.0
1980-11-14 09:14:06.070 ,7,0,0.,12.0,0.,12.0,0.,12.0,0.,12.0
1980-11-14 09:14:18.070 ,7,0,0.,12.0,0.,12.0,0.,12.0,0.,12.0
1980-11-14 09:14:30.070 ,7,0,0.,12.0,0.,12.0,0.,12.0,0.,12.0
1980-11-14 09:14:42.070 ,7,0,0.,12.0,0.,12.0,0.,12.0,0.,12.0
1980-11-14 09:14:54.070 ,7,0,0.,12.0,0.,12.0,0.,12.0,0.,12.0
1980-11-14 09:15:06.070 ,6,0,0.,12.0,0.,12.0,0.,12.0,0.,12.0
1980-11-14 09:15:18.070 ,6,0,0.,12.0,0.,12.0,0.,12.0,0.,12.0
1980-11-14 09:15:30.070 ,6,0,0.,12.0,0.,12.0,0.,12.0,0.,12.0
1980-11-14 09:15:42.070 ,6,0,0.,12.0,0.,12.0,0.,12.0,0.,12.0
1980-11-14 09:15:54.070 ,5,0,0.,12.0,0.,12.0,0.,12.0,0.,12.0
1980-11-14 09:16:06.070 ,5,0,0.,12.0,0.,12.0,0.,12.0,0.,12.0
1980-11-14 09:16:18.070 ,5,0,0.,12.0,0.,12.0,0.,12.0,0.,12.0
1980-11-14 09:16:30.070 ,5,0,0.,12.0,0.,12.0,0.,12.0,0.,12.0
1980-11-14 09:16:42.070 ,4,0,0.,12.0,0.,12.0,0.,12.0,0.,12.0
1980-11-14 09:16:54.070 ,4,0,0.,12.0,0.,12.0,0.,12.0,0.,12.0
1980-11-14 09:17:06.070 ,4,0,0.,12.0,0.,12.0,0.,12.0,0.,12.0
1980-11-14 09:17:18.070 ,4,0,0.,12.0,0.,12.0,0.,12.0,0.,12.0
1980-11-14 09:17:30.070 ,3,0,0.,12.0,0.,12.0,0.,12.0,0.,12.0
1980-11-14 09:17:42.070 ,3,0,0.,12.0,0.,12.0,0.,12.0,0.,12.0
1980-11-14 09:17:54.070 ,3,0,0.,12.0,0.,12.0,0.,12.0,0.,12.0
1980-11-14 09:18:06.070 ,3,0,0.,12.0,0.,12.0,0.,12.0,0.,12.0
1980-11-14 09:18:18.070 ,2,0,0.,12.0,0.,12.0,0.,12.0,0.,12.0
1980-11-14 09:18:30.070 ,2,0,0.,12.0,0.,12.0,0.,12.0,0.,12.0
1980-11-14 09:18:42.070 ,2,0,0.,12.0,0.,12.0,0.,12.0,0.,12.0
1980-11-14 09:18:54.070 ,2,0,0.,12.0,0.,12.0,0.,12.0,0.,12.0
1980-11-14 09:19:06.070 ,1,0,0.,12.0,0.,12.0,0.,12.0,0.,12.0
1980-11-14 09:19:18.070 ,1,0,0.,12.0,0.,12.0,0.,12.0,0.,12.0
1980-11-14 09:19:30.070 ,1,0,0.,12.0,0.,12.0,0.,12.0,0.,12.0
1980-11-14 09:19:42.070 ,1,0,0.,12.0,0.,12.0,0.,12.0,0.,12.0
1980-11-14 09:19:54.070 ,0,0,0.,12.0,0.,12.0,0.,12.0,0.,12.0
1980-11-14 09:20:06.070 ,0,0,0.,12.0,0.,12.0,0.,12.0,0.,12.0
1980-11-14 09:20:18.070 ,0,0,0.,12.0,0.,12.0,0.,12.0,0.,12.0
1980-11-14 09:20:30.070 ,0,0,0.,12.0,0.,12.0,0.,12.0,0.,12.0
1980-11-14 09:20:42.070 ,0,0,0.,12.0,0.,12.0,0.,12.0,0.,12.0
1980-11-14 09:20:54.070 ,0,0,0.,12.0,0.,12.0,0.,12.0,0.,12.0
1980-11-14 09:21:06.070 ,0,0,0.,12.0,0.,12.0,0.,12.0,0.,12.0
1980-11-14 09:21:18.070 ,0,0,,0,,0,,0,,0
1980-11-14 09:21:24.670 ,0,0,,0,,0,,0,,0
1980-11-14 09:21:36.670 ,0,0,0.,12.0,0.,12.0,0.,12.0,0.,12.0
1980-11-14 09:21:30.070 ,1,0,0.,12.0,0.,12.0,0.,12.0,0.,12.0
1980-11-14 09:21:42.070 ,1,0,0.,12.0,0.,12.0,0.,12.0,0.,12.0
1980-11-14 09:21:54.070 ,1,0,0.,12.0,0.,12.0,0.,12.0,0.,12.0
1980-11-14 09:22:06.070 ,1,0,0.,12.0,0.,12.0,0.,12.0,0.,12.0
1980-11-14 09:22:18.070 ,2,0,0.,12.0,0.,12.0,0.,12.0,0.,12.0
1980-11-14 09:22:30.070 ,2,0,0.,12.0,0.,12.0,0.,12.0,0.,12.0
1980-11-14 09:22:42.070 ,2,0,0.,12.0,0.,12.0,0.,12.0,0.,12.0
1980-11-14 09:22:54.070 ,2,0,0.,12.0,0.,12.0,0.,12.0,0.,12.0
1980-11-14 09:23:06.070 ,3,0,0.,12.0,0.,12.0,0.,12.0,0.,12.0
1980-11-14 09:23:18.070 ,3,0,0.,12.0,0.,12.0,0.,12.0,0.,12.0
1980-11-14 09:23:30.070 ,3,0,0.,12.0,0.,12.0,0.,12.0,0.,12.0
1980-11-14 09:23:42.070 ,3,0,0.,12.0,0.,12.0,1.,12.0,0.,12.0
1980-11-14 09:23:54.070 ,4,0,0.,12.0,0.,12.0,0.,12.0,0.,12.0
1980-11-14 09:24:06.070 ,4,0,0.,12.0,0.,12.0,0.,12.0,0.,12.0
1980-11-14 09:24:18.070 ,4,0,0.,12.0,0.,12.0,0.,12.0,0.,12.0
1980-11-14 09:24:30.070 ,4,0,0.,12.0,0.,12.0,0.,12.0,0.,12.0
1980-11-14 09:24:42.070 ,5,0,0.,12.0,0.,12.0,0.,12.0,0.,12.0
1980-11-14 09:24:54.070 ,5,0,0.,12.0,0.,12.0,0.,12.0,0.,12.0
1980-11-14 09:25:06.070 ,5,0,0.,12.0,0.,12.0,0.,12.0,0.,12.0
1980-11-14 09:25:18.070 ,5,0,0.,12.0,0.,12.0,0.,12.0,0.,12.0
1980-11-14 09:25:30.070 ,6,0,0.,12.0,0.,12.0,0.,12.0,0.,12.0
1980-11-14 09:25:42.070 ,6,0,0.,12.0,0.,12.0,0.,12.0,0.,12.0
1980-11-14 09:25:54.070 ,6,0,0.,12.0,0.,12.0,0.,12.0,0.,12.0
1980-11-14 09:26:06.070 ,6,0,0.,12.0,0.,12.0,0.,12.0,0.,12.0
1980-11-14 09:26:18.070 ,7,0,0.,12.0,0.,12.0,0.,12.0,0.,12.0
1980-11-14 09:26:30.070 ,7,0,0.,12.0,0.,12.0,0.,12.0,0.,12.0
1980-11-14 09:26:42.070 ,7,0,0.,12.0,0.,12.0,0.,12.0,0.,12.0
1980-11-14 09:26:54.070 ,7,0,0.,12.0,0.,12.0,0.,12.0,0.,12.0
1980-11-14 09:27:06.070 ,7,0,0.,12.0,0.,12.0,0.,12.0,0.,12.0
1980-11-14 09:27:18.070 ,7,0,0.,12.0,0.,12.0,0.,12.0,0.,12.0
1980-11-14 09:27:30.070 ,7,0,0.,12.0,0.,12.0,0.,12.0,0.,12.0
1980-11-14 09:27:42.070 ,7,0,0.,12.0,0.,12.0,0.,12.0,0.,12.0
1980-11-14 09:27:54.070 ,6,0,0.,12.0,0.,12.0,0.,12.0,0.,12.0
1980-11-14 09:28:06.070 ,6,0,0.,12.0,0.,12.0,0.,12.0,0.,12.0
1980-11-14 09:28:18.070 ,6,0,0.,12.0,0.,12.0,0.,12.0,0.,12.0
1980-11-14 09:28:30.070 ,6,0,0.,12.0,0.,12.0,0.,12.0,0.,12.0
1980-11-14 09:28:42.070 ,5,0,0.,12.0,0.,12.0,0.,12.0,0.,12.0
1980-11-14 09:28:54.070 ,5,0,0.,12.0,0.,12.0,0.,12.0,0.,12.0
1980-11-14 09:29:06.070 ,5,0,0.,12.0,0.,12.0,0.,12.0,0.,12.0
1980-11-14 09:29:18.070 ,5,0,0.,12.0,0.,12.0,0.,12.0,0.,12.0
1980-11-14 09:29:30.070 ,4,0,0.,12.0,0.,12.0,0.,12.0,0.,12.0
1980-11-14 09:29:42.070 ,4,0,0.,12.0,0.,12.0,0.,12.0,0.,12.0
1980-11-14 09:29:54.070 ,4,0,0.,12.0,0.,12.0,0.,12.0,0.,12.0
1980-11-14 09:30:06.070 ,4,0,0.,12.0,0.,12.0,0.,12.0,0.,12.0
1980-11-14 09:30:18.070 ,3,0,0.,12.0,0.,12.0,0.,12.0,0.,12.0
1980-11-14 09:30:30.070 ,3,0,0.,12.0,0.,12.0,0.,12.0,0.,12.0
1980-11-14 09:30:42.070 ,3,0,0.,12.0,0.,12.0,0.,12.0,0.,12.0
1980-11-14 09:30:54.070 ,3,0,0.,12.0,0.,12.0,0.,12.0,0.,12.0
1980-11-14 09:31:06.070 ,2,0,0.,12.0,0.,12.0,0.,12.0,0.,12.0
1980-11-14 09:31:18.070 ,2,0,0.,12.0,0.,12.0,0.,12.0,0.,12.0
1980-11-14 09:31:30.070 ,2,0,0.,12.0,0.,12.0,0.,12.0,0.,12.0
1980-11-14 09:31:42.070 ,2,0,0.,12.0,0.,12.0,0.,12.0,0.,12.0
1980-11-14 09:31:54.070 ,1,0,0.,12.0,0.,12.0,0.,12.0,0.,12.0
1980-11-14 09:32:06.070 ,1,0,0.,12.0,0.,12.0,0.,12.0,0.,12.0
1980-11-14 09:32:18.070 ,1,0,0.,12.0,0.,12.0,0.,12.0,0.,12.0
1980-11-14 09:32:30.070 ,1,0,0.,12.0,0.,12.0,0.,12.0,0.,12.0
1980-11-14 09:32:42.070 ,0,0,0.,12.0,0.,12.0,0.,12.0,0.,12.0
1980-11-14 09:32:54.070 ,0,0,0.,12.0,0.,12.0,0.,12.0,0.,12.0
1980-11-14 09:33:06.070 ,0,0,0.,12.0,0.,12.0,0.,12.0,0.,12.0
1980-11-14 09:33:18.070 ,0,0,0.,12.0,0.,12.0,0.,12.0,0.,12.0
1980-11-14 09:33:30.070 ,0,0,0.,12.0,0.,12.0,0.,12.0,0.,12.0
1980-11-14 09:33:42.070 ,0,0,0.,12.0,0.,12.0,0.,12.0,0.,12.0
1980-11-14 09:33:54.070 ,0,0,0.,12.0,0.,12.0,0.,12.0,0.,12.0
1980-11-14 09:34:06.070 ,0,0,0.,12.0,0.,12.0,0.,12.0,0.,12.0
1980-11-14 09:34:18.070 ,1,0,0.,12.0,0.,12.0,0.,12.0,0.,12.0
1980-11-14 09:34:30.070 ,1,0,0.,12.0,0.,12.0,0.,12.0,0.,12.0
1980-11-14 09:34:42.070 ,1,0,0.,12.0,0.,12.0,0.,12.0,0.,12.0
1980-11-14 09:34:54.070 ,1,0,0.,12.0,0.,12.0,0.,12.0,0.,12.0
1980-11-14 09:35:06.070 ,2,0,0.,12.0,0.,12.0,0.,12.0,0.,12.0
1980-11-14 09:35:18.070 ,2,0,0.,12.0,0.,12.0,0.,12.0,0.,12.0
1980-11-14 09:35:30.070 ,2,0,0.,12.0,0.,12.0,0.,12.0,0.,12.0
1980-11-14 09:35:42.070 ,2,0,0.,12.0,0.,12.0,0.,12.0,0.,12.0
1980-11-14 09:35:54.070 ,0,0,0.,12.0,0.,12.0,0.,12.0,0.,12.0
1980-11-14 09:36:06.070 ,0,0,0.,12.0,0.,12.0,0.,12.0,0.,12.0
1980-11-14 09:36:18.070 ,0,0,0.,12.0,0.,12.0,0.,12.0,0.,12.0
1980-11-14 09:36:30.070 ,0,0,0.,12.0,0.,12.0,0.,12.0,0.,12.0
1980-11-14 09:36:42.070 ,4,0,0.,12.0,0.,12.0,0.,12.0,0.,12.0
1980-11-14 09:36:54.070 ,4,0,0.,12.0,0.,12.0,0.,12.0,0.,12.0
1980-11-14 09:37:06.070 ,4,0,0.,12.0,0.,12.0,0.,12.0,0.,12.0
1980-11-14 09:37:18.070 ,4,0,0.,12.0,0.,12.0,0.,12.0,0.,12.0
1980-11-14 09:37:30.070 ,5,0,0.,12.0,0.,12.0,0.,12.0,0.,12.0
1980-11-14 09:37:42.070 ,5,0,0.,12.0,0.,12.0,0.,12.0,0.,12.0
1980-11-14 09:37:54.070 ,5,0,0.,12.0,0.,12.0,0.,12.0,0.,12.0
1980-11-14 09:38:06.070 ,5,0,0.,12.0,0.,12.0,0.,12.0,0.,12.0
1980-11-14 09:38:18.070 ,6,0,0.,12.0,0.,12.0,0.,12.0,0.,12.0
1980-11-14 09:38:30.070 ,6,0,0.,12.0,0.,12.0,0.,12.0,0.,12.0
1980-11-14 09:38:42.070 ,6,0,0.,12.0,0.,12.0,0.,12.0,0.,12.0
1980-11-14 09:38:54.070 ,6,0,0.,12.0,0.,12.0,0.,12.0,0.,12.0
1980-11-14 09:39:06.070 ,7,0,0.,12.0,0.,12.0,0.,12.0,0.,12.0
1980-11-14 09:39:18.070 ,7,0,0.,12.0,0.,12.0,0.,12.0,0.,12.0
1980-11-14 09:39:30.070 ,7,0,0.,12.0,0.,12.0,0.,12.0,0.,12.0
1980-11-14 09:39:42.070 ,7,0,0.,12.0,0.,12.0,0.,12.0,0.,12.0
1980-11-14 09:39:54.070 ,7,0,0.,12.0,0.,12.0,0.,12.0,0.,12.0
1980-11-14 09:40:06.070 ,7,0,0.,12.0,0.,12.0,0.,12.0,0.,12.0
1980-11-14 09:40:18.070 ,7,0,0.,12.0,0.,12.0,0.,12.0,0.,12.0
1980-11-14 09:40:30.070 ,7,0,0.,12.0,0.,12.0,0.,12.0,0.,12.0
1980-11-14 09:40:42.070 ,6,0,0.,12.0,0.,12.0,0.,12.0,0.,12.0
1980-11-14 09:40:54.070 ,6,0,0.,12.0,0.,12.0,0.,12.0,0.,12.0
1980-11-14 09:41:06.070 ,6,0,0.,12.0,0.,12.0,0.,12.0,0.,12.0
1980-11-14 09:41:18.070 ,6,0,0.,12.0,0.,12.0,0.,12.0,0.,12.0
1980-11-14 09:41:30.070 ,5,0,0.,12.0,0.,12.0,0.,12.0,0.,12.0
1980-11-14 09:41:42.070 ,5,0,0.,12.0,0.,12.0,0.,12.0,0.,12.0
1980-11-14 09:41:54.070 ,5,0,0.,12.0,0.,12.0,0.,12.0,0.,12.0
1980-11-14 09:42:06.070 ,5,0,0.,12.0,0.,12.0,0.,12.0,0.,12.0
1980-11-14 09:42:18.070 ,4,0,0.,12.0,0.,12.0,0.,12.0,0.,12.0
1980-11-14 09:42:30.070 ,4,0,0.,12.0,0.,12.0,0.,12.0,0.,12.0
1980-11-14 09:42:42.070 ,4,0,0.,12.0,0.,12.0,0.,12.0,0.,12.0
1980-11-14 09:42:54.070 ,4,0,0.,12.0,0.,12.0,0.,12.0,0.,12.0
1980-11-14 09:43:06.070 ,3,0,0.,12.0,0.,12.0,0.,12.0,0.,12.0
1980-11-14 09:43:18.070 ,3,0,0.,12.0,0.,12.0,0.,12.0,0.,12.0
1980-11-14 09:43:30.070 ,3,0,0.,12.0,0.,12.0,0.,12.0,0.,12.0
1980-11-14 09:43:42.070 ,3,0,0.,12.0,0.,12.0,0.,12.0,0.,12.0
1980-11-14 09:43:54.070 ,2,0,0.,12.0,0.,12.0,0.,12.0,0.,12.0
1980-11-14 09:44:06.070 ,2,0,0.,12.0,0.,12.0,0.,12.0,0.,12.0
1980-11-14 09:44:18.070 ,2,0,0.,12.0,0.,12.0,0.,12.0,0.,12.0
1980-11-14 09:44:30.070 ,2,0,0.,12.0,0.,12.0,0.,12.0,0.,12.0
1980-11-14 09:44:42.070 ,1,0,0.,12.0,0.,12.0,0.,12.0,0.,12.0
1980-11-14 09:44:54.070 ,1,0,0.,12.0,0.,12.0,0.,12.0,0.,12.0
1980-11-14 09:45:06.070 ,1,0,0.,12.0,0.,12.0,0.,12.0,0.,12.0
1980-11-14 09:45:18.070 ,1,0,0.,12.0,0.,12.0,0.,12.0,0.,12.0
1980-11-14 09:45:30.070 ,0,0,0.,12.0,0.,12.0,0.,12.0,0.,12.0
1980-11-14 09:45:42.070 ,0,0,0.,12.0,0.,12.0,0.,12.0,0.,12.0
1980-11-14 09:45:54.070 ,0,0,0.,12.0,0.,12.0,0.,12.0,0.,12.0
1980-11-14 09:46:06.070 ,0,0,0.,12.0,0.,12.0,0.,12.0,0.,12.0
1980-11-14 09:46:18.070 ,0,0,0.,12.0,0.,12.0,0.,12.0,0.,12.0
1980-11-14 09:46:30.070 ,0,0,0.,12.0,0.,12.0,0.,12.0,0.,12.0
1980-11-14 09:46:42.070 ,0,0,0.,12.0,0.,12.0,0.,12.0,0.,12.0
1980-11-14 09:46:54.070 ,0,0,0.,12.0,0.,12.0,0.,12.0,0.,12.0
1980-11-14 09:47:06.070 ,1,0,0.,12.0,0.,12.0,0.,12.0,0.,12.0
1980-11-14 09:47:18.070 ,1,0,0.,12.0,0.,12.0,0.,12.0,0.,12.0
1980-11-14 09:47:30.070 ,1,0,0.,12.0,0.,12.0,0.,12.0,0.,12.0
1980-11-14 09:47:42.070 ,1,0,0.,12.0,0.,12.0,0.,12.0,0.,12.0
1980-11-14 09:47:54.070 ,2,0,0.,12.0,0.,12.0,0.,12.0,0.,12.0
1980-11-14 09:48:06.070 ,2,0,0.,12.0,0.,12.0,0.,12.0,0.,12.0
1980-11-14 09:48:18.070 ,2,0,0.,12.0,0.,12.0,0.,12.0,0.,12.0
1980-11-14 09:48:30.070 ,2,0,0.,12.0,0.,12.0,0.,12.0,0.,12.0
1980-11-14 09:48:42.070 ,3,0,0.,12.0,0.,12.0,0.,12.0,0.,12.0
1980-11-14 09:48:54.070 ,3,0,0.,12.0,0.,12.0,0.,12.0,0.,12.0
1980-11-14 09:49:06.070 ,3,0,0.,12.0,0.,12.0,0.,12.0,0.,12.0
1980-11-14 09:49:18.070 ,3,0,0.,12.0,0.,12.0,0.,12.0,0.,12.0
1980-11-14 09:49:30.070 ,4,0,0.,12.0,0.,12.0,0.,12.0,0.,12.0
1980-11-14 09:49:42.070 ,4,0,0.,12.0,0.,12.0,0.,12.0,0.,12.0
1980-11-14 09:49:54.070 ,4,0,0.,12.0,0.,12.0,0.,12.0,0.,12.0
1980-11-14 09:50:06.070 ,4,0,0.,12.0,0.,12.0,0.,12.0,0.,12.0
1980-11-14 09:50:18.070 ,5,0,0.,12.0,0.,12.0,0.,12.0,0.,12.0
1980-11-14 09:50:30.070 ,5,0,0.,12.0,0.,12.0,0.,12.0,0.,12.0
1980-11-14 09:50:42.070 ,5,0,0.,12.0,0.,12.0,0.,12.0,0.,12.0
1980-11-14 09:50:54.070 ,5,0,0.,12.0,0.,12.0,0.,12.0,0.,12.0
1980-11-14 09:51:06.070 ,6,0,0.,12.0,1.,12.0,0.,12.0,0.,12.0
1980-11-14 09:51:18.070 ,6,0,0.,12.0,0.,12.0,0.,12.0,0.,12.0
1980-11-14 09:51:30.070 ,6,0,0.,12.0,0.,12.0,0.,12.0,0.,12.0
1980-11-14 09:51:42.070 ,6,0,0.,12.0,0.,12.0,0.,12.0,0.,12.0
1980-11-14 09:51:54.070 ,7,0,0.,12.0,0.,12.0,0.,12.0,0.,12.0
1980-11-14 09:52:06.070 ,7,0,0.,12.0,0.,12.0,0.,12.0,0.,12.0
1980-11-14 09:52:18.070 ,0,0,0.,12.0,0.,12.0,0.,12.0,0.,12.0
1980-11-14 09:52:30.070 ,0,0,0.,12.0,0.,12.0,0.,12.0,0.,12.0
1980-11-14 09:53:10.870 ,0,0,0.,12.0,0.,12.0,0.,12.0,0.,12.0
1980-11-14 09:53:22.870 ,0,0,0.,12.0,0.,12.0,0.,12.0,0.,12.0
1980-11-14 09:53:30.070 ,6,0,0.,12.0,0.,12.0,0.,12.0,0.,12.0
1980-11-14 09:53:42.070 ,6,0,0.,12.0,0.,12.0,0.,12.0,0.,12.0
1980-11-14 09:53:54.070 ,6,0,0.,12.0,0.,12.0,0.,12.0,0.,12.0
1980-11-14 09:54:06.070 ,6,0,0.,12.0,0.,12.0,0.,12.0,0.,12.0
1980-11-14 09:54:18.070 ,5,0,0.,12.0,0.,12.0,0.,12.0,0.,12.0
1980-11-14 09:54:30.070 ,5,0,0.,12.0,0.,12.0,0.,12.0,0.,12.0
1980-11-14 09:54:42.070 ,5,0,0.,12.0,0.,12.0,0.,12.0,0.,12.0
1980-11-14 09:54:54.070 ,5,0,0.,12.0,0.,12.0,0.,12.0,0.,12.0
1980-11-14 09:55:06.070 ,4,0,0.,12.0,0.,12.0,0.,12.0,0.,12.0
1980-11-14 09:55:18.070 ,4,0,0.,12.0,0.,12.0,0.,12.0,0.,12.0
1980-11-14 09:55:30.070 ,4,0,0.,12.0,0.,12.0,0.,12.0,0.,12.0
1980-11-14 09:55:42.070 ,4,0,0.,12.0,0.,12.0,0.,12.0,0.,12.0
1980-11-14 09:55:54.070 ,3,0,0.,12.0,0.,12.0,0.,12.0,0.,12.0
1980-11-14 09:56:06.070 ,3,0,0.,12.0,0.,12.0,0.,12.0,0.,12.0
1980-11-14 09:56:18.070 ,3,0,0.,12.0,0.,12.0,0.,12.0,0.,12.0
1980-11-14 09:56:30.070 ,3,0,0.,12.0,0.,12.0,0.,12.0,0.,12.0
1980-11-14 09:56:42.070 ,2,0,0.,12.0,0.,12.0,0.,12.0,0.,12.0
1980-11-14 09:56:54.070 ,2,0,0.,12.0,0.,12.0,0.,12.0,0.,12.0
1980-11-14 09:57:06.070 ,2,0,0.,12.0,0.,12.0,0.,12.0,0.,12.0
1980-11-14 09:57:18.070 ,2,0,0.,12.0,0.,12.0,0.,12.0,0.,12.0
1980-11-14 09:57:30.070 ,1,0,0.,12.0,0.,12.0,0.,12.0,0.,12.0
1980-11-14 09:57:42.070 ,1,0,0.,12.0,0.,12.0,0.,12.0,0.,12.0
1980-11-14 09:57:54.070 ,1,0,0.,12.0,0.,12.0,0.,12.0,0.,12.0
1980-11-14 09:58:06.070 ,1,0,0.,12.0,0.,12.0,0.,12.0,0.,12.0
1980-11-14 09:58:18.070 ,0,0,0.,12.0,0.,12.0,0.,12.0,0.,12.0
1980-11-14 09:58:30.070 ,0,0,0.,12.0,0.,12.0,0.,12.0,0.,12.0
1980-11-14 09:58:42.070 ,0,0,0.,12.0,0.,12.0,0.,12.0,0.,12.0
1980-11-14 09:58:54.070 ,0,0,0.,12.0,0.,12.0,0.,12.0,0.,12.0
1980-11-14 09:59:06.070 ,0,0,0.,12.0,0.,12.0,0.,12.0,0.,12.0
1980-11-14 09:59:18.070 ,0,0,0.,12.0,0.,12.0,0.,12.0,0.,12.0
1980-11-14 09:59:30.070 ,0,0,0.,12.0,0.,12.0,0.,12.0,0.,12.0
1980-11-14 09:59:42.070 ,0,0,0.,12.0,0.,12.0,0.,12.0,0.,12.0
1980-11-14 09:59:54.070 ,1,0,0.,12.0,0.,12.0,0.,12.0,0.,12.0
1980-11-14 10:00:06.070 ,1,0,0.,12.0,0.,12.0,0.,12.0,0.,12.0
1980-11-14 10:00:18.070 ,1,0,,0,,0,,0,,0
1980-11-14 10:00:30.070 ,1,0,0.,12.0,0.,12.0,0.,12.0,0.,12.0
1980-11-14 10:00:42.070 ,2,0,0.,12.0,0.,12.0,0.,12.0,0.,12.0
1980-11-14 10:00:54.070 ,2,0,0.,12.0,0.,12.0,0.,12.0,0.,12.0
1980-11-14 10:01:06.070 ,2,0,0.,12.0,0.,12.0,0.,12.0,0.,12.0
1980-11-14 10:01:18.070 ,2,0,0.,12.0,0.,12.0,0.,12.0,0.,12.0
1980-11-14 10:01:30.070 ,3,0,0.,12.0,0.,12.0,0.,12.0,0.,12.0
1980-11-14 10:01:42.070 ,3,0,0.,12.0,0.,12.0,0.,12.0,0.,12.0
1980-11-14 10:01:54.070 ,3,0,0.,12.0,0.,12.0,0.,12.0,0.,12.0
1980-11-14 10:02:06.070 ,3,0,0.,12.0,0.,12.0,0.,12.0,0.,12.0
1980-11-14 10:02:18.070 ,4,0,0.,12.0,0.,12.0,0.,12.0,0.,12.0
1980-11-14 10:02:30.070 ,4,0,0.,12.0,0.,12.0,0.,12.0,0.,12.0
1980-11-14 10:02:42.070 ,4,0,0.,12.0,0.,12.0,0.,12.0,0.,12.0
1980-11-14 10:02:54.070 ,4,0,0.,12.0,0.,12.0,0.,12.0,0.,12.0
1980-11-14 10:03:06.070 ,5,0,0.,12.0,0.,12.0,0.,12.0,0.,12.0
1980-11-14 10:03:18.070 ,5,0,0.,12.0,0.,12.0,0.,12.0,0.,12.0
1980-11-14 10:03:30.070 ,5,0,0.,12.0,0.,12.0,0.,12.0,0.,12.0
1980-11-14 10:03:42.070 ,5,0,0.,12.0,0.,12.0,0.,12.0,0.,12.0
1980-11-14 10:03:54.070 ,6,0,0.,12.0,0.,12.0,0.,12.0,0.,12.0
1980-11-14 10:04:06.070 ,6,0,0.,12.0,0.,12.0,0.,12.0,0.,12.0
1980-11-14 10:04:18.070 ,6,0,0.,12.0,0.,12.0,0.,12.0,0.,12.0
1980-11-14 10:04:30.070 ,6,0,0.,12.0,0.,12.0,0.,12.0,0.,12.0
1980-11-14 10:04:42.070 ,7,0,0.,12.0,0.,12.0,0.,12.0,0.,12.0
1980-11-14 10:04:54.070 ,7,0,0.,12.0,0.,12.0,0.,12.0,0.,12.0
1980-11-14 10:05:06.070 ,7,0,0.,12.0,0.,12.0,0.,12.0,0.,12.0
1980-11-14 10:05:18.070 ,7,0,0.,12.0,0.,12.0,0.,12.0,0.,12.0
1980-11-14 10:05:30.070 ,7,0,0.,12.0,0.,12.0,0.,12.0,0.,12.0
1980-11-14 10:05:42.070 ,7,0,0.,12.0,0.,12.0,0.,12.0,0.,12.0
1980-11-14 10:05:54.070 ,7,0,0.,12.0,0.,12.0,0.,12.0,0.,12.0
1980-11-14 10:06:06.070 ,7,0,0.,12.0,0.,12.0,0.,12.0,0.,12.0
1980-11-14 10:06:18.070 ,6,0,0.,12.0,0.,12.0,0.,12.0,0.,12.0
1980-11-14 10:06:30.070 ,6,0,0.,12.0,0.,12.0,0.,12.0,0.,12.0
1980-11-14 10:06:42.070 ,6,0,0.,12.0,0.,12.0,0.,12.0,0.,12.0
1980-11-14 10:06:54.070 ,6,0,0.,12.0,0.,12.0,0.,12.0,0.,12.0
1980-11-14 10:07:06.070 ,5,0,0.,12.0,0.,12.0,0.,12.0,0.,12.0
1980-11-14 10:07:18.070 ,5,0,0.,12.0,0.,12.0,0.,12.0,0.,12.0
1980-11-14 10:07:30.070 ,5,0,0.,12.0,0.,12.0,0.,12.0,0.,12.0
1980-11-14 10:07:42.070 ,5,0,0.,12.0,0.,12.0,0.,12.0,0.,12.0
1980-11-14 10:07:54.070 ,4,0,0.,12.0,0.,12.0,0.,12.0,0.,12.0
1980-11-14 10:08:06.070 ,4,0,0.,12.0,0.,12.0,0.,12.0,0.,12.0
1980-11-14 10:08:18.070 ,4,0,0.,12.0,0.,12.0,0.,12.0,0.,12.0
1980-11-14 10:08:30.070 ,4,0,0.,12.0,0.,12.0,0.,12.0,0.,12.0
1980-11-14 10:08:42.070 ,3,0,0.,12.0,0.,12.0,0.,12.0,0.,12.0
1980-11-14 10:08:54.070 ,3,0,0.,12.0,0.,12.0,0.,12.0,0.,12.0
1980-11-14 10:09:06.070 ,3,0,0.,12.0,0.,12.0,0.,12.0,0.,12.0
1980-11-14 10:09:18.070 ,3,0,0.,12.0,0.,12.0,0.,12.0,0.,12.0
1980-11-14 10:09:30.070 ,2,0,0.,12.0,0.,12.0,0.,12.0,0.,12.0
1980-11-14 10:09:42.070 ,2,0,0.,12.0,0.,12.0,0.,12.0,0.,12.0
1980-11-14 10:09:54.070 ,2,0,,0,,0,,0,,0
1980-11-14 10:10:06.070 ,2,0,0.,12.0,0.,12.0,0.,12.0,0.,12.0
1980-11-14 10:10:18.070 ,1,0,0.,12.0,0.,12.0,0.,12.0,0.,12.0
1980-11-14 10:10:30.070 ,1,0,0.,12.0,0.,12.0,0.,12.0,0.,12.0
1980-11-14 10:10:42.070 ,1,0,0.,12.0,0.,12.0,0.,12.0,0.,12.0
1980-11-14 10:10:54.070 ,1,0,0.,12.0,0.,12.0,0.,12.0,0.,12.0
1980-11-14 10:11:06.070 ,0,0,0.,12.0,0.,12.0,0.,12.0,0.,12.0
1980-11-14 10:11:18.070 ,0,0,0.,12.0,0.,12.0,0.,12.0,0.,12.0
1980-11-14 10:11:30.070 ,0,0,0.,12.0,0.,12.0,0.,12.0,0.,12.0
1980-11-14 10:11:42.070 ,0,0,0.,12.0,0.,12.0,0.,12.0,0.,12.0
1980-11-14 10:11:54.070 ,0,0,0.,12.0,0.,12.0,0.,12.0,0.,12.0
1980-11-14 10:12:06.070 ,0,0,0.,12.0,0.,12.0,0.,12.0,0.,12.0
1980-11-14 10:12:18.070 ,0,0,0.,12.0,0.,12.0,0.,12.0,0.,12.0
1980-11-14 10:12:30.070 ,0,0,0.,12.0,0.,12.0,0.,12.0,0.,12.0
1980-11-14 10:12:42.070 ,1,0,0.,12.0,0.,12.0,0.,12.0,0.,12.0
1980-11-14 10:12:54.070 ,1,0,0.,12.0,0.,12.0,0.,12.0,0.,12.0
1980-11-14 10:13:06.070 ,1,0,0.,12.0,0.,12.0,0.,12.0,0.,12.0
1980-11-14 10:13:18.070 ,1,0,0.,12.0,0.,12.0,0.,12.0,0.,12.0
1980-11-14 10:13:30.070 ,2,0,0.,12.0,0.,12.0,0.,12.0,0.,12.0
1980-11-14 10:13:42.070 ,2,0,0.,12.0,0.,12.0,0.,12.0,0.,12.0
1980-11-14 10:13:54.070 ,2,0,0.,12.0,0.,12.0,0.,12.0,0.,12.0
1980-11-14 10:14:06.070 ,2,0,0.,12.0,0.,12.0,0.,12.0,0.,12.0
1980-11-14 10:14:18.070 ,3,0,0.,12.0,0.,12.0,0.,12.0,0.,12.0
1980-11-14 10:14:30.070 ,3,0,0.,12.0,0.,12.0,0.,12.0,0.,12.0
1980-11-14 10:14:42.070 ,3,0,0.,12.0,0.,12.0,0.,12.0,0.,12.0
1980-11-14 10:14:54.070 ,3,0,0.,12.0,0.,12.0,0.,12.0,0.,12.0
1980-11-14 10:15:06.070 ,4,0,0.,12.0,0.,12.0,0.,12.0,0.,12.0
1980-11-14 10:15:18.070 ,4,0,0.,12.0,0.,12.0,0.,12.0,0.,12.0
1980-11-14 10:15:30.070 ,4,0,0.,12.0,0.,12.0,0.,12.0,0.,12.0
1980-11-14 10:15:42.070 ,4,0,0.,12.0,0.,12.0,0.,12.0,0.,12.0
1980-11-14 10:15:54.070 ,5,0,0.,12.0,0.,12.0,0.,12.0,0.,12.0
1980-11-14 10:16:06.070 ,5,0,0.,12.0,0.,12.0,0.,12.0,0.,12.0
1980-11-14 10:16:18.070 ,5,0,0.,12.0,0.,12.0,0.,12.0,0.,12.0
1980-11-14 10:16:30.070 ,5,0,0.,12.0,0.,12.0,0.,12.0,0.,12.0
1980-11-14 10:16:42.070 ,0,0,,0,,0,,0,,0
1980-11-14 10:16:54.070 ,0,0,,0,,0,,0,,0
1980-11-14 10:17:06.070 ,0,0,0.,12.0,0.,12.0,0.,12.0,0.,12.0
1980-11-14 10:17:18.070 ,0,0,0.,12.0,0.,12.0,0.,12.0,0.,12.0
1980-11-14 10:17:30.070 ,7,0,0.,12.0,0.,12.0,0.,12.0,0.,12.0
1980-11-14 10:17:42.070 ,7,0,0.,12.0,0.,12.0,0.,12.0,0.,12.0
1980-11-14 10:17:54.070 ,7,1,0.,12.0,0.,12.0,0.,12.0,0.,12.0
1980-11-14 10:18:06.070 ,7,1,,0,,0,,0,,0
1980-11-14 10:18:18.070 ,7,0,0.,12.0,0.,12.0,0.,12.0,0.,12.0
1980-11-14 10:18:30.070 ,7,0,0.,12.0,0.,12.0,0.,12.0,0.,12.0
1980-11-14 10:18:42.070 ,7,0,0.,12.0,0.,12.0,0.,12.0,0.,12.0
1980-11-14 10:18:54.070 ,7,0,0.,12.0,0.,12.0,0.,12.0,0.,12.0
1980-11-14 10:19:06.070 ,6,0,0.,12.0,0.,12.0,0.,12.0,0.,12.0
1980-11-14 10:19:18.070 ,6,0,0.,12.0,0.,12.0,0.,12.0,0.,12.0
1980-11-14 10:19:30.070 ,6,0,0.,12.0,0.,12.0,0.,12.0,0.,12.0
1980-11-14 10:19:42.070 ,6,0,0.,12.0,0.,12.0,0.,12.0,0.,12.0
1980-11-14 10:19:54.070 ,5,0,0.,12.0,0.,12.0,0.,12.0,0.,12.0
1980-11-14 10:20:06.070 ,5,0,0.,12.0,0.,12.0,0.,12.0,0.,12.0
1980-11-14 10:20:18.070 ,5,0,0.,12.0,0.,12.0,0.,12.0,0.,12.0
1980-11-14 10:20:30.070 ,5,0,0.,12.0,0.,12.0,0.,12.0,0.,12.0
1980-11-14 10:20:42.070 ,4,0,0.,12.0,0.,12.0,0.,12.0,0.,12.0
1980-11-14 10:20:54.070 ,4,0,0.,12.0,0.,12.0,0.,12.0,0.,12.0
1980-11-14 10:21:06.070 ,4,0,0.,12.0,0.,12.0,0.,12.0,0.,12.0
1980-11-14 10:21:18.070 ,4,0,0.,12.0,0.,12.0,0.,12.0,0.,12.0
1980-11-14 10:21:30.070 ,3,0,0.,12.0,0.,12.0,0.,12.0,0.,12.0
1980-11-14 10:21:42.070 ,3,0,0.,12.0,0.,12.0,0.,12.0,0.,12.0
1980-11-14 10:21:54.070 ,3,0,0.,12.0,0.,12.0,0.,12.0,0.,12.0
1980-11-14 10:22:06.070 ,3,0,0.,12.0,0.,12.0,0.,12.0,0.,12.0
1980-11-14 10:22:18.070 ,2,0,0.,12.0,0.,12.0,0.,12.0,0.,12.0
1980-11-14 10:22:30.070 ,2,0,0.,12.0,0.,12.0,0.,12.0,0.,12.0
1980-11-14 10:22:42.070 ,2,0,0.,12.0,0.,12.0,0.,12.0,0.,12.0
1980-11-14 10:22:54.070 ,2,0,0.,12.0,0.,12.0,0.,12.0,0.,12.0
1980-11-14 10:23:06.070 ,1,0,0.,12.0,0.,12.0,0.,12.0,0.,12.0
1980-11-14 10:23:18.070 ,1,0,0.,12.0,0.,12.0,0.,12.0,0.,12.0
1980-11-14 10:23:30.070 ,1,0,0.,12.0,0.,12.0,0.,12.0,0.,12.0
1980-11-14 10:23:42.070 ,1,0,0.,12.0,0.,12.0,0.,12.0,0.,12.0
1980-11-14 10:23:54.070 ,0,0,0.,12.0,0.,12.0,0.,12.0,0.,12.0
1980-11-14 10:24:06.070 ,0,0,0.,12.0,0.,12.0,0.,12.0,0.,12.0
1980-11-14 10:24:18.070 ,0,0,0.,12.0,0.,12.0,0.,12.0,0.,12.0
1980-11-14 10:24:30.070 ,0,0,0.,12.0,0.,12.0,0.,12.0,0.,12.0
1980-11-14 10:24:42.070 ,0,0,0.,12.0,0.,12.0,0.,12.0,0.,12.0
1980-11-14 10:24:54.070 ,0,0,0.,12.0,0.,12.0,0.,12.0,0.,12.0
1980-11-14 10:25:06.070 ,0,0,0.,12.0,0.,12.0,0.,12.0,0.,12.0
1980-11-14 10:25:18.070 ,0,0,0.,12.0,0.,12.0,0.,12.0,0.,12.0
1980-11-14 10:25:30.070 ,1,0,0.,12.0,0.,12.0,0.,12.0,0.,12.0
1980-11-14 10:25:42.070 ,1,0,0.,12.0,0.,12.0,0.,12.0,0.,12.0
1980-11-14 10:25:54.070 ,1,0,0.,12.0,0.,12.0,0.,12.0,0.,12.0